Placerville, CA

5:28 AM PDT on October 18, 2019 (GMT -0700)
Placerville

Weather History for KPVF - September, 2019

Change the Weather History Date:

Monday, September 16, 2019

  Actual Average Record
Temperature  
Mean Temperature 55 °F -  
Max Temperature 60 °F 85 °F 89 °F (2012)
Min Temperature 50 °F 51 °F 44 °F (2015)
Degree Days  
Heating Degree Days 10    
Growing Degree Days 5 (Base 50)    
Moisture  
Dew Point 50 °F    
Average Humidity 86    
Maximum Humidity 100    
Minimum Humidity 59    
Precipitation  
Precipitation 0.63 in - - ()
Sea Level Pressure  
Sea Level Pressure 29.98 in    
Wind  
Wind Speed 7 mph (SE)    
Max Wind Speed 18 mph    
Max Gust Speed 26 mph    
Visibility 8 miles    
Events      
Averages and records for this station are not official NWS values.
T = Trace of Precipitation, MM = Missing Value Source: NWS Daily Summary

Daily Weather History Graph

Daily Weather History Graph

Search for Another Location

Airport or City:

Astronomy

Sep. 16, 2019 Rise Set
Actual Time 6:45 AM PDT 7:09 PM PDT
Civil Twilight 6:18 AM PDT 7:36 PM PDT
Nautical Twilight 5:47 AM PDT 8:07 PM PDT
Astronomical Twilight 5:15 AM PDT 8:39 PM PDT
Moon 8:48 PM PDT (9/16) 8:56 AM PDT (9/16)
Length of Visible Light 13h 17m
Length of Day
12h 24m
Waning Gibbous, 94% of the Moon is Illuminated
Sep 16
Waning Gibbous
Sep 21
Last Quarter
Sep 28
New
Oct 5
First Quarter
Oct 13
Full

Hourly Weather History & Observations

Time (PDT) Temp. Dew Point Humidity Pressure Visibility Wind Dir Wind Speed Gust Speed Precip Events Conditions
12:15 AM 57.2 °F 50.0 °F 77% 29.91 in 10.0 mi SE 5.8 mph - N/A   Scattered Clouds
12:35 AM 57.2 °F 50.0 °F 77% 29.91 in 10.0 mi SE 8.1 mph - N/A   Partly Cloudy
12:55 AM 57.2 °F 48.2 °F 72% 29.91 in 10.0 mi SE 5.8 mph - N/A   Clear
1:15 AM 57.2 °F 46.4 °F 67% 29.91 in 10.0 mi SE 6.9 mph - N/A   Clear
1:35 AM 55.4 °F 46.4 °F 72% 29.91 in 10.0 mi SE 6.9 mph - N/A   Clear
1:55 AM 55.4 °F 46.4 °F 72% 29.91 in 10.0 mi SSE 5.8 mph - N/A   Clear
2:15 AM 55.4 °F 48.2 °F 77% 29.91 in 10.0 mi SSE 6.9 mph - N/A   Clear
2:35 AM 53.6 °F 48.2 °F 82% 29.92 in 10.0 mi South 6.9 mph - N/A   Scattered Clouds
2:55 AM 55.4 °F 51.8 °F 88% 29.92 in 10.0 mi South 5.8 mph - N/A   Mostly Cloudy
3:15 AM 55.4 °F 53.6 °F 94% 29.92 in 3.0 mi SE 6.9 mph - N/A   Overcast
3:35 AM 53.6 °F 53.6 °F 100% 29.92 in 1.8 mi SE 6.9 mph - N/A   Overcast
3:55 AM 51.8 °F 51.8 °F 100% 29.92 in 2.0 mi SE 6.9 mph - N/A   Overcast
4:15 AM 53.6 °F 53.6 °F 100% 29.93 in 1.2 mi SE 6.9 mph - N/A   Overcast
4:35 AM 53.6 °F 53.6 °F 100% 29.93 in 0.5 mi ESE 6.9 mph - N/A   Overcast
4:55 AM 53.6 °F 53.6 °F 100% 29.93 in 0.8 mi SE 8.1 mph - N/A   Overcast
5:15 AM 53.6 °F 53.6 °F 100% 29.93 in 3.0 mi SE 9.2 mph - N/A   Overcast
5:35 AM 53.6 °F 53.6 °F 100% 29.93 in 3.0 mi SE 10.4 mph - N/A   Overcast
5:55 AM 53.6 °F 53.6 °F 100% 29.93 in 10.0 mi SE 9.2 mph - N/A   Overcast
6:15 AM 53.6 °F 53.6 °F 100% 29.93 in 10.0 mi SE 10.4 mph - N/A   Overcast
6:35 AM 55.4 °F 55.4 °F 100% 29.93 in 10.0 mi SSE 8.1 mph - N/A   Overcast
6:55 AM 55.4 °F 55.4 °F 100% 29.93 in 10.0 mi SSE 9.2 mph - N/A   Overcast
7:15 AM 55.4 °F 55.4 °F 100% 29.93 in 10.0 mi SSE 8.1 mph - N/A   Overcast
7:35 AM 55.4 °F 55.4 °F 100% 29.93 in 9.0 mi SSE 8.1 mph - N/A   Overcast
7:55 AM 55.4 °F 55.4 °F 100% 29.93 in 7.0 mi SSE 8.1 mph - N/A   Overcast
8:15 AM 55.4 °F 55.4 °F 100% 29.93 in 5.0 mi SSE 8.1 mph - N/A   Overcast
8:35 AM 55.4 °F 55.4 °F 100% 29.93 in 5.0 mi SSE 11.5 mph - N/A   Mostly Cloudy
8:55 AM 57.2 °F 57.2 °F 100% 29.93 in 3.0 mi South 9.2 mph - N/A   Overcast
9:15 AM 57.2 °F 57.2 °F 100% 29.91 in 1.0 mi South 10.4 mph 18.4 mph N/A   Overcast
9:35 AM 57.2 °F 57.2 °F 100% 29.91 in 5.0 mi South 8.1 mph - N/A   Overcast
9:55 AM 55.4 °F 55.4 °F 100% 29.92 in 0.2 mi WSW 10.4 mph 25.3 mph 0.16 in   Overcast
10:15 AM 51.8 °F 51.8 °F 100% 29.94 in 0.5 mi West 18.4 mph 26.5 mph 0.06 in   Overcast
10:35 AM 50.0 °F 50.0 °F 100% 29.95 in 0.2 mi WSW 9.2 mph - 0.21 in   Overcast
10:55 AM 50.0 °F 50.0 °F 100% 29.97 in 0.2 mi South 5.8 mph - 0.30 in   Overcast
11:15 AM 50.0 °F 50.0 °F 100% 29.99 in 0.2 mi South 4.6 mph - 0.05 in   Overcast
11:35 AM 50.0 °F 50.0 °F 100% 29.99 in 0.8 mi SSE 6.9 mph - 0.11 in   Overcast
11:55 AM 50.0 °F 50.0 °F 100% 29.99 in 2.5 mi SE 5.8 mph - 0.14 in   Mostly Cloudy
12:15 PM 50.0 °F 50.0 °F 100% 29.99 in 1.0 mi SE 6.9 mph - N/A   Overcast
12:35 PM 51.8 °F 51.8 °F 100% 30.01 in 10.0 mi SE 6.9 mph - N/A   Mostly Cloudy
12:55 PM 51.8 °F 51.8 °F 100% 30.02 in 10.0 mi SE 6.9 mph - N/A   Overcast
1:15 PM 53.6 °F 53.6 °F 100% 30.03 in 10.0 mi SE 5.8 mph - N/A   Overcast
1:35 PM 55.4 °F 53.6 °F 94% 30.02 in 10.0 mi SSE 8.1 mph - N/A   Scattered Clouds
1:55 PM 57.2 °F 53.6 °F 88% 30.02 in 10.0 mi SE 4.6 mph - N/A   Mostly Cloudy
2:15 PM 57.2 °F 50.0 °F 77% 30.02 in 10.0 mi SSE 5.8 mph - N/A   Overcast
2:35 PM 57.2 °F 50.0 °F 77% 30.02 in 10.0 mi South 4.6 mph - N/A   Overcast
2:55 PM 59.0 °F 50.0 °F 72% 30.03 in 10.0 mi SSE 6.9 mph - N/A   Overcast
3:15 PM 57.2 °F 48.2 °F 72% 30.02 in 10.0 mi SSE 5.8 mph - N/A   Overcast
3:35 PM 59.0 °F 50.0 °F 72% 30.02 in 10.0 mi SSE 6.9 mph - N/A   Overcast
3:55 PM 59.0 °F 48.2 °F 67% 30.02 in 10.0 mi SSE 6.9 mph - N/A   Mostly Cloudy
4:15 PM 57.2 °F 48.2 °F 72% 30.02 in 10.0 mi SSE 3.5 mph - N/A   Mostly Cloudy
4:35 PM 60.8 °F 48.2 °F 63% 30.03 in 10.0 mi SSE 5.8 mph - N/A   Mostly Cloudy
4:55 PM 59.0 °F 48.2 °F 67% 30.03 in 10.0 mi SSE 3.5 mph - N/A   Clear
5:15 PM 60.8 °F 46.4 °F 59% 30.03 in 10.0 mi SSE 3.5 mph - N/A   Clear
5:55 PM 57.2 °F 48.2 °F 72% 30.03 in 10.0 mi SSE 5.8 mph - N/A   Mostly Cloudy
6:15 PM 57.2 °F 46.4 °F 67% 30.03 in 10.0 mi SSE 4.6 mph - N/A   Overcast
6:55 PM 57.2 °F 48.2 °F 72% 30.04 in 10.0 mi North 3.5 mph - N/A   Overcast
7:15 PM 53.6 °F 48.2 °F 82% 30.04 in 10.0 mi North 11.5 mph - N/A   Overcast
7:35 PM 53.6 °F 48.2 °F 82% 30.03 in 10.0 mi NE 11.5 mph - 0.01 in   Overcast
7:55 PM 53.6 °F 48.2 °F 82% 30.03 in 9.0 mi ENE 10.4 mph - 0.03 in   Mostly Cloudy
8:15 PM 55.4 °F 48.2 °F 77% 30.03 in 10.0 mi ENE 8.1 mph - N/A   Overcast
8:35 PM 53.6 °F 46.4 °F 77% 30.03 in 10.0 mi East 6.9 mph - N/A   Overcast
8:55 PM 53.6 °F 48.2 °F 82% 30.03 in 10.0 mi East 5.8 mph - N/A   Mostly Cloudy
9:15 PM 55.4 °F 46.4 °F 72% 30.04 in 10.0 mi East 5.8 mph - N/A   Mostly Cloudy
9:35 PM 53.6 °F 46.4 °F 77% 30.04 in 10.0 mi East 6.9 mph - N/A   Mostly Cloudy
9:55 PM 53.6 °F 46.4 °F 77% 30.05 in 10.0 mi East 6.9 mph - N/A   Partly Cloudy
10:35 PM 53.6 °F 44.6 °F 72% 30.04 in 10.0 mi East 8.1 mph - N/A   Mostly Cloudy
10:55 PM 53.6 °F 44.6 °F 72% 30.04 in 10.0 mi ENE 8.1 mph - N/A   Mostly Cloudy
11:15 PM 51.8 °F 44.6 °F 76% 30.05 in 10.0 mi East 6.9 mph - N/A   Mostly Cloudy
11:35 PM 51.8 °F 42.8 °F 71% 30.04 in 10.0 mi East 8.1 mph - N/A   Mostly Cloudy
11:55 PM 53.6 °F 42.8 °F 67% 30.04 in 10.0 mi East 9.2 mph - N/A   Mostly Cloudy